Pardubice, Czech Republic

7:32 AM CET on February 28, 2017 (GMT +0100)
Pardubice

Weather History for LKPD - October, 2011

Change the Weather History Date:

Wednesday, October 19, 2011

  Actual Average Record
Temperature  
Mean Temperature 47 °F -  
Max Temperature 53 °F - - ()
Min Temperature 41 °F - - ()
Degree Days  
Heating Degree Days 18    
Moisture  
Dew Point 42 °F    
Average Humidity 88    
Maximum Humidity 100    
Minimum Humidity 58    
Precipitation  
Precipitation 0.00 in - - ()
Sea Level Pressure  
Sea Level Pressure 29.97 in    
Wind  
Wind Speed 3 mph ()    
Max Wind Speed 7 mph    
Max Gust Speed -    
Visibility 5.9 miles    
Events Rain    
T = Trace of Precipitation, MM = Missing Value Source: Averaged Metar Reports

Daily Weather History Graph

Daily Weather History Graph

Search for Another Location

Airport or City:

Trip Planner

Search our weather history database for the weather conditions in past years. The results will help you decide how hot, cold, wet, or windy it might be!

Date:

Astronomy

Oct. 19, 2011 Rise Set
Actual Time 7:24 AM CEST 5:58 PM CEST
Civil Twilight 6:51 AM CEST 6:31 PM CEST
Nautical Twilight 6:14 AM CEST 7:09 PM CEST
Astronomical Twilight 5:36 AM CEST 7:46 PM CEST
Moon 11:08 PM CEST (10/19) 2:02 PM CEST (10/19)
Length of Visible Light 11h 39m
Length of Day
10h 34m
Waning Gibbous, 57% of the Moon is Illuminated
Oct 19
Waning Gibbous
Oct 20
Last Quarter
Oct 26
New
Nov 2
First Quarter
Nov 10
Full

Hourly Weather History & Observations

Time (CEST) Temp. Windchill Dew Point Humidity Pressure Visibility Wind Dir Wind Speed Gust Speed Precip Events Conditions
12:00 AM 53.6 °F - 39.2 °F 58% 29.86 in - Variable 4.6 mph - N/A   Clear
1:00 AM 50.0 °F - 41.0 °F 71% 29.89 in - NE 3.5 mph - N/A   Clear
2:00 AM 48.2 °F - 41.0 °F 76% 29.86 in - Variable 2.3 mph - N/A   Clear
3:00 AM 46.4 °F - 41.0 °F 81% 29.89 in - Variable 2.3 mph - N/A   Clear
4:00 AM 46.4 °F 45.2 °F 41.0 °F 81% 29.89 in - West 3.5 mph - N/A   Clear
5:00 AM 46.4 °F 42.9 °F 41.0 °F 81% 29.92 in - West 6.9 mph - N/A   Clear
6:00 AM 44.6 °F 43.1 °F 42.8 °F 93% 29.92 in - WSW 3.5 mph - N/A   Clear
7:00 AM 44.6 °F 43.1 °F 42.8 °F 93% 29.95 in 6.2 mi SW 3.5 mph - N/A   Overcast
8:00 AM 46.4 °F - 44.6 °F 93% 29.95 in 5.0 mi NW 2.3 mph - N/A Rain Light Rain
9:00 AM 46.4 °F 45.2 °F 42.8 °F 87% 29.95 in 3.7 mi NNW 3.5 mph - N/A Rain Light Rain
9:20 AM 44.6 °F - 42.8 °F 93% 29.98 in 5.0 mi Variable 2.3 mph - N/A Rain Light Rain
10:00 AM 44.6 °F 43.1 °F 42.8 °F 93% 29.98 in 6.2 mi NNW 3.5 mph - N/A Rain Light Rain
10:35 AM 44.6 °F - 42.8 °F 93% 29.98 in 6.2 mi Variable 2.3 mph - N/A Rain Light Rain
11:00 AM 44.6 °F - 42.8 °F 93% 29.98 in 6.2 mi Variable 2.3 mph - N/A Rain Light Rain
1:00 PM 44.6 °F - 42.8 °F 93% 29.95 in 6.2 mi Variable 1.2 mph - N/A   Overcast
2:00 PM 44.6 °F 42.2 °F 42.8 °F 93% 29.95 in 6.2 mi NW 4.6 mph - N/A   Overcast
3:00 PM 44.6 °F 42.2 °F 42.8 °F 93% 29.98 in 6.2 mi NW 4.6 mph - N/A   Overcast
4:00 PM 44.6 °F 40.7 °F 41.0 °F 87% 29.98 in 6.2 mi WNW 6.9 mph - N/A Rain Light Rain
5:00 PM 44.6 °F 42.2 °F 41.0 °F 87% 30.01 in 6.2 mi WNW 4.6 mph - N/A Rain Light Rain
6:00 PM 42.8 °F 40.1 °F 41.0 °F 93% 30.01 in 6.2 mi NW 4.6 mph - N/A Rain Light Rain
7:00 PM 42.8 °F 41.1 °F 41.0 °F 93% 30.04 in 6.2 mi West 3.5 mph - N/A Rain Light Rain
8:00 PM 42.8 °F 40.1 °F 41.0 °F 93% 30.04 in 6.2 mi West 4.6 mph - N/A Rain Light Rain
9:00 PM 42.8 °F 38.6 °F 42.8 °F 100% 30.06 in 5.0 mi West 6.9 mph - N/A Rain Light Rain
10:00 PM 41.0 °F 37.1 °F 39.2 °F 93% 30.09 in 6.2 mi WSW 5.8 mph - N/A Rain Light Rain
11:00 PM 42.8 °F 41.1 °F 39.2 °F 87% 30.09 in 6.2 mi WSW 3.5 mph - N/A   Overcast